Stündliche Wetter Barpali

Heute, 22 Oktober, Donnerstag

Zeit Temperatur Niederschläge Wind Luftdruck Luftfeuchtigkeit
00:00 +25°C° 0 mm 2 m/S 740 mmHg 71%
01:00 +25°C° 0 mm 2 m/S 739 mmHg 72%
02:00 +24°C° 0 mm 2 m/S 739 mmHg 74%
03:00 +24°C° 0 mm 2 m/S 738 mmHg 76%
04:00 +24°C° 0 mm 2 m/S 738 mmHg 76%
05:00 +24°C° 0 mm 2 m/S 738 mmHg 77%
06:00 +24°C° 0 mm 2 m/S 739 mmHg 82%
07:00 +25°C° 0 mm 2 m/S 739 mmHg 80%
08:00 +26°C° 0 mm 2 m/S 740 mmHg 77%
09:00 +28°C° 0 mm 2 m/S 740 mmHg 75%
10:00 +29°C° 0 mm 2 m/S 740 mmHg 72%
11:00 +30°C° 0 mm 3 m/S 740 mmHg 69%
12:00 +33°C° 0 mm 3 m/S 739 mmHg 65%
13:00 +33°C° 0 mm 3 m/S 739 mmHg 63%
14:00 +34°C° 0 mm 3 m/S 738 mmHg 61%
15:00 +34°C° 0 mm 3 m/S 737 mmHg 59%
16:00 +32°C° 0 mm 2 m/S 738 mmHg 63%
17:00 +30°C° 0 mm 2 m/S 738 mmHg 66%
18:00 +29°C° 0 mm 1 m/S 738 mmHg 70%
19:00 +28°C° 0 mm 1 m/S 738 mmHg 70%
20:00 +28°C° 0 mm 2 m/S 739 mmHg 71%
21:00 +27°C° 0 mm 2 m/S 739 mmHg 71%
22:00 +27°C° 0 mm 2 m/S 739 mmHg 71%
23:00 +26°C° 0 mm 2 m/S 739 mmHg 71%

Morgen, 23 Oktober, Freitag

Zeit Temperatur Niederschläge Wind Luftdruck Luftfeuchtigkeit
00:00 +26°C° 0 mm 2 m/S 739 mmHg 71%
01:00 +25°C° 0 mm 2 m/S 739 mmHg 72%
02:00 +25°C° 0 mm 2 m/S 739 mmHg 73%
03:00 +25°C° 0 mm 2 m/S 738 mmHg 73%
04:00 +24°C° 0 mm 2 m/S 738 mmHg 75%
05:00 +24°C° 0 mm 2 m/S 738 mmHg 76%
06:00 +24°C° 0 mm 2 m/S 738 mmHg 77%
07:00 +25°C° 0 mm 2 m/S 739 mmHg 75%
08:00 +26°C° 0 mm 2 m/S 740 mmHg 73%
09:00 +28°C° 0 mm 2 m/S 740 mmHg 71%
10:00 +29°C° 0 mm 2 m/S 740 mmHg 68%
11:00 +30°C° 0 mm 2 m/S 740 mmHg 64%
12:00 +31°C° 0 mm 2 m/S 739 mmHg 61%
13:00 +32°C° 0 mm 2 m/S 739 mmHg 58%
14:00 +32°C° 0 mm 2 m/S 738 mmHg 56%
15:00 +34°C° 0 mm 2 m/S 738 mmHg 53%
16:00 +31°C° 0 mm 2 m/S 738 mmHg 57%
17:00 +29°C° 0 mm 2 m/S 738 mmHg 60%
18:00 +28°C° 0 mm 2 m/S 738 mmHg 64%
19:00 +27°C° 0 mm 2 m/S 739 mmHg 62%
20:00 +26°C° 0 mm 2 m/S 739 mmHg 60%
21:00 +26°C° 0 mm 2 m/S 740 mmHg 59%
22:00 +25°C° 0 mm 2 m/S 740 mmHg 60%
23:00 +25°C° 0 mm 1 m/S 740 mmHg 62%

übermorgen, 24 Oktober, Samstag

Zeit Temperatur Niederschläge Wind Luftdruck Luftfeuchtigkeit
00:00 +24°C° 0 mm 1 m/S 740 mmHg 63%
01:00 +24°C° 0 mm 1 m/S 740 mmHg 65%
02:00 +23°C° 0 mm 1 m/S 740 mmHg 66%
03:00 +23°C° 0 mm 1 m/S 740 mmHg 68%
04:00 +23°C° 0 mm 1 m/S 740 mmHg 69%
05:00 +22°C° 0 mm 1 m/S 740 mmHg 70%
06:00 +22°C° 0 mm 1 m/S 740 mmHg 71%
07:00 +23°C° 0 mm 1 m/S 740 mmHg 69%
08:00 +25°C° 0 mm 1 m/S 741 mmHg 66%
09:00 +26°C° 0 mm 1 m/S 742 mmHg 64%
10:00 +27°C° 0 mm 1 m/S 742 mmHg 61%
11:00 +29°C° 0 mm 1 m/S 741 mmHg 58%
12:00 +30°C° 0 mm 2 m/S 741 mmHg 55%
13:00 +30°C° 0 mm 2 m/S 740 mmHg 53%
14:00 +31°C° 0 mm 2 m/S 740 mmHg 51%
15:00 +31°C° 0 mm 2 m/S 740 mmHg 48%
16:00 +30°C° 0 mm 1 m/S 740 mmHg 52%
17:00 +28°C° 0 mm 1 m/S 740 mmHg 55%
18:00 +27°C° 0 mm 1 m/S 740 mmHg 59%
19:00 +26°C° 0 mm 1 m/S 741 mmHg 60%
20:00 +26°C° 0 mm 1 m/S 741 mmHg 61%
21:00 +25°C° 0 mm 1 m/S 742 mmHg 62%
22:00 +25°C° 0 mm 1 m/S 742 mmHg 64%
23:00 +24°C° 0 mm 1 m/S 742 mmHg 65%

, 25 Oktober, Sonntag

Zeit Temperatur Niederschläge Wind Luftdruck Luftfeuchtigkeit
00:00 +24°C° 0 mm 1 m/S 742 mmHg 67%
01:00 +24°C° 0 mm 1 m/S 742 mmHg 69%
02:00 +21°C° 0 mm 0 m/S 742 mmHg 70%
03:00 +21°C° 0 mm 0 m/S 742 mmHg 72%
04:00 +21°C° 0 mm 0 m/S 742 mmHg 72%
05:00 +20°C° 0 mm 0 m/S 742 mmHg 73%
06:00 +22°C° 0 mm 1 m/S 742 mmHg 74%
07:00 +23°C° 0 mm 1 m/S 743 mmHg 71%
08:00 +25°C° 0 mm 1 m/S 743 mmHg 68%
09:00 +26°C° 0 mm 1 m/S 744 mmHg 65%
10:00 +28°C° 0 mm 1 m/S 744 mmHg 62%
11:00 +29°C° 0 mm 1 m/S 743 mmHg 59%
12:00 +31°C° 0 mm 1 m/S 743 mmHg 55%
13:00 +31°C° 0 mm 1 m/S 742 mmHg 54%
14:00 +31°C° 0 mm 1 m/S 742 mmHg 52%
15:00 +32°C° 0 mm 1 m/S 741 mmHg 51%
16:00 +30°C° 0 mm 1 m/S 741 mmHg 55%
17:00 +29°C° 0 mm 1 m/S 741 mmHg 59%
18:00 +28°C° 0 mm 1 m/S 741 mmHg 63%
19:00 +27°C° 0 mm 1 m/S 742 mmHg 65%
20:00 +27°C° 0 mm 1 m/S 742 mmHg 66%
21:00 +26°C° 0 mm 1 m/S 743 mmHg 68%
22:00 +26°C° 0 mm 1 m/S 743 mmHg 68%
23:00 +26°C° 0 mm 1 m/S 743 mmHg 68%

25 Oktober, Sonntag

Zeit Temperatur Niederschläge Wind Luftdruck Luftfeuchtigkeit
00:00 +24°C° 0 mm 1 m/S 742 mmHg 67%
01:00 +24°C° 0 mm 1 m/S 742 mmHg 69%
02:00 +21°C° 0 mm 0 m/S 742 mmHg 70%
03:00 +21°C° 0 mm 0 m/S 742 mmHg 72%
04:00 +21°C° 0 mm 0 m/S 742 mmHg 72%
05:00 +20°C° 0 mm 0 m/S 742 mmHg 73%
06:00 +22°C° 0 mm 1 m/S 742 mmHg 74%
07:00 +23°C° 0 mm 1 m/S 743 mmHg 71%
08:00 +25°C° 0 mm 1 m/S 743 mmHg 68%
09:00 +26°C° 0 mm 1 m/S 744 mmHg 65%
10:00 +28°C° 0 mm 1 m/S 744 mmHg 62%
11:00 +29°C° 0 mm 1 m/S 743 mmHg 59%
12:00 +31°C° 0 mm 1 m/S 743 mmHg 55%
13:00 +31°C° 0 mm 1 m/S 742 mmHg 54%
14:00 +31°C° 0 mm 1 m/S 742 mmHg 52%
15:00 +32°C° 0 mm 1 m/S 741 mmHg 51%
16:00 +30°C° 0 mm 1 m/S 741 mmHg 55%
17:00 +29°C° 0 mm 1 m/S 741 mmHg 59%
18:00 +28°C° 0 mm 1 m/S 741 mmHg 63%
19:00 +27°C° 0 mm 1 m/S 742 mmHg 65%
20:00 +27°C° 0 mm 1 m/S 742 mmHg 66%
21:00 +26°C° 0 mm 1 m/S 743 mmHg 68%
22:00 +26°C° 0 mm 1 m/S 743 mmHg 68%
23:00 +26°C° 0 mm 1 m/S 743 mmHg 68%

26 Oktober, Montag

Zeit Temperatur Niederschläge Wind Luftdruck Luftfeuchtigkeit
00:00 +26°C° 0 mm 1 m/S 743 mmHg 68%
01:00 +25°C° 0 mm 1 m/S 743 mmHg 68%
02:00 +25°C° 0 mm 1 m/S 743 mmHg 67%
03:00 +24°C° 0 mm 2 m/S 742 mmHg 67%
04:00 +24°C° 0 mm 1 m/S 742 mmHg 67%
05:00 +24°C° 0 mm 1 m/S 743 mmHg 66%
06:00 +23°C° 0 mm 1 m/S 743 mmHg 66%
07:00 +24°C° 0 mm 1 m/S 743 mmHg 65%
08:00 +25°C° 0 mm 1 m/S 744 mmHg 65%
09:00 +26°C° 0 mm 1 m/S 745 mmHg 64%
10:00 +28°C° 0 mm 1 m/S 744 mmHg 62%
11:00 +29°C° 0 mm 1 m/S 744 mmHg 60%
12:00 +31°C° 0 mm 1 m/S 743 mmHg 58%
13:00 +31°C° 0 mm 1 m/S 743 mmHg 56%
14:00 +32°C° 0 mm 1 m/S 742 mmHg 54%
15:00 +32°C° 0 mm 1 m/S 741 mmHg 52%
16:00 +31°C° 0 mm 1 m/S 741 mmHg 55%
17:00 +29°C° 0 mm 1 m/S 741 mmHg 58%
18:00 +28°C° 0 mm 1 m/S 741 mmHg 61%
19:00 +27°C° 0 mm 1 m/S 742 mmHg 61%
20:00 +25°C° 0 mm 0 m/S 742 mmHg 60%
21:00 +24°C° 0 mm 0 m/S 743 mmHg 60%
22:00 +26°C° 0 mm 1 m/S 743 mmHg 60%
23:00 +25°C° 0 mm 1 m/S 743 mmHg 59%

27 Oktober, Dienstag

Zeit Temperatur Niederschläge Wind Luftdruck Luftfeuchtigkeit
00:00 +25°C° 0 mm 1 m/S 743 mmHg 59%
01:00 +24°C° 0 mm 1 m/S 742 mmHg 59%
02:00 +24°C° 0 mm 1 m/S 742 mmHg 58%
03:00 +23°C° 0 mm 1 m/S 742 mmHg 58%
04:00 +23°C° 0 mm 1 m/S 742 mmHg 58%
05:00 +23°C° 0 mm 1 m/S 742 mmHg 59%
06:00 +21°C° 0 mm 2 m/S 742 mmHg 59%
07:00 +24°C° 0 mm 1 m/S 743 mmHg 59%
08:00 +25°C° 0 mm 1 m/S 744 mmHg 58%
09:00 +26°C° 0 mm 1 m/S 744 mmHg 57%
10:00 +28°C° 0 mm 1 m/S 744 mmHg 53%
11:00 +29°C° 0 mm 1 m/S 744 mmHg 49%
12:00 +31°C° 0 mm 1 m/S 743 mmHg 46%
13:00 +31°C° 0 mm 1 m/S 743 mmHg 44%
14:00 +32°C° 0 mm 1 m/S 742 mmHg 41%
15:00 +32°C° 0 mm 1 m/S 741 mmHg 39%
16:00 +30°C° 0 mm 1 m/S 742 mmHg 43%
17:00 +26°C° 0 mm 0 m/S 742 mmHg 47%
18:00 +25°C° 0 mm 0 m/S 742 mmHg 50%
19:00 +24°C° 0 mm 0 m/S 742 mmHg 51%
20:00 +23°C° 0 mm 0 m/S 743 mmHg 51%
21:00 +22°C° 0 mm 0 m/S 743 mmHg 52%
22:00 +24°C° 0 mm 1 m/S 743 mmHg 52%
23:00 +23°C° 0 mm 1 m/S 743 mmHg 52%
Mehr zeigen